THY44D LTFM-LTAJ

Flight info

Callsign THY44D
Flight time 1h 16m
Altitude 37000
Route VICEN UT57 VEVUD UT341 BAG UL605 RATSI UA17 ASBOM
Aircraft B738/M-SDE2E3FGHIRWXY/LB1

Departure

Time 2026-05-05 09:01
Airport İstanbul Airport (LTFM)

Arrival

Time 2026-05-05 10:17
Airport Gaziantep Oğuzeli International Airport (LTAJ)
Time Latitude Longitude Altitude Speed Heading
2026-05-05 08:34 41.26047 28.74895 312 ft 0 kts 251°
2026-05-05 08:54 41.26047 28.74896 312 ft 2 kts 251°
2026-05-05 08:54 41.26055 28.74927 311 ft 4 kts 252°
2026-05-05 08:54 41.26062 28.74961 312 ft 4 kts 256°
2026-05-05 08:54 41.26068 28.74996 310 ft 4 kts 266°
2026-05-05 08:55 41.26065 28.75029 312 ft 4 kts 307°
2026-05-05 08:55 41.26058 28.75039 311 ft 0 kts 341°
2026-05-05 08:58 41.26059 28.75038 311 ft 1 kts 341°
2026-05-05 08:58 41.26079 28.75029 311 ft 6 kts 340°
2026-05-05 08:58 41.26131 28.75004 312 ft 9 kts 340°
2026-05-05 08:58 41.26187 28.74984 312 ft 8 kts 355°
2026-05-05 08:59 41.26232 28.75019 311 ft 8 kts 64°
2026-05-05 08:59 41.26240 28.75103 312 ft 11 kts 88°
2026-05-05 08:59 41.26241 28.75212 313 ft 12 kts 89°
2026-05-05 08:59 41.26243 28.75318 313 ft 11 kts 88°
2026-05-05 09:00 41.26244 28.75422 313 ft 11 kts 88°
2026-05-05 09:00 41.26246 28.75524 313 ft 11 kts 91°
2026-05-05 09:00 41.26246 28.75621 314 ft 10 kts 89°
2026-05-05 09:00 41.26283 28.75666 315 ft 8 kts
2026-05-05 09:01 41.26464 28.75664 309 ft 59 kts 359°
2026-05-05 09:01 41.27115 28.75651 300 ft 125 kts 359°
2026-05-05 09:01 41.28157 28.75634 477 ft 163 kts 358°
2026-05-05 09:01 41.29292 28.75657 1276 ft 166 kts
2026-05-05 09:02 41.30367 28.76288 1981 ft 175 kts 31°
2026-05-05 09:02 41.31429 28.77206 2525 ft 191 kts 30°
2026-05-05 09:02 41.32636 28.78190 2741 ft 214 kts 29°
2026-05-05 09:02 41.33968 28.79233 2966 ft 236 kts 28°
2026-05-05 09:03 41.35434 28.80349 3512 ft 246 kts 28°
2026-05-05 09:03 41.36907 28.81538 4354 ft 248 kts 37°
2026-05-05 09:03 41.37956 28.83384 5139 ft 256 kts 62°
2026-05-05 09:03 41.38404 28.85703 5908 ft 266 kts 86°
2026-05-05 09:04 41.38060 28.88140 6678 ft 276 kts 109°
2026-05-05 09:04 41.37142 28.90431 7392 ft 283 kts 117°
2026-05-05 09:04 41.36101 28.92685 8086 ft 288 kts 118°
2026-05-05 09:04 41.35034 28.94930 8791 ft 291 kts 118°
2026-05-05 09:05 41.33939 28.97229 9490 ft 295 kts 118°
2026-05-05 09:05 41.32832 28.99562 10156 ft 299 kts 118°
2026-05-05 09:05 41.31691 29.01986 10408 ft 319 kts 118°
2026-05-05 09:05 41.30495 29.04540 10571 ft 339 kts 118°
2026-05-05 09:06 41.29219 29.07270 10868 ft 352 kts 118°
2026-05-05 09:06 41.27909 29.10067 11550 ft 358 kts 119°
2026-05-05 09:06 41.26599 29.12856 12396 ft 359 kts 119°
2026-05-05 09:06 41.25274 29.15693 13125 ft 364 kts 118°
2026-05-05 09:07 41.23930 29.18573 13820 ft 367 kts 119°
2026-05-05 09:07 41.22573 29.21475 14446 ft 370 kts 119°
2026-05-05 09:07 41.21207 29.24391 15056 ft 374 kts 119°
2026-05-05 09:07 41.19822 29.27344 15677 ft 377 kts 119°
2026-05-05 09:08 41.18444 29.30283 16305 ft 381 kts 119°
2026-05-05 09:08 41.17037 29.33280 16948 ft 384 kts 119°
2026-05-05 09:08 41.15618 29.36300 17600 ft 387 kts 119°
2026-05-05 09:08 41.14179 29.39360 18239 ft 391 kts 119°
2026-05-05 09:09 41.12725 29.42450 18776 ft 396 kts 120°
2026-05-05 09:09 41.11257 29.45566 19274 ft 400 kts 120°
2026-05-05 09:09 41.09774 29.48713 19784 ft 405 kts 120°
2026-05-05 09:09 41.08284 29.51868 20298 ft 409 kts 120°
2026-05-05 09:10 41.06767 29.55080 20822 ft 412 kts 120°
2026-05-05 09:10 41.05236 29.58315 21312 ft 417 kts 120°
2026-05-05 09:10 41.03690 29.61580 21820 ft 420 kts 120°
2026-05-05 09:10 41.02121 29.64891 22299 ft 424 kts 120°
2026-05-05 09:11 41.00541 29.68220 22768 ft 429 kts 121°
2026-05-05 09:11 40.98967 29.71532 23229 ft 432 kts 121°
2026-05-05 09:11 40.97354 29.74924 23672 ft 436 kts 121°
2026-05-05 09:11 40.95725 29.78345 24027 ft 439 kts 121°
2026-05-05 09:12 40.94083 29.81791 24128 ft 443 kts 121°
2026-05-05 09:12 40.92427 29.85261 24437 ft 448 kts 120°
2026-05-05 09:12 40.90761 29.88747 24928 ft 448 kts 120°
2026-05-05 09:12 40.89117 29.92185 25409 ft 449 kts 120°
2026-05-05 09:13 40.87441 29.95686 25824 ft 452 kts 120°
2026-05-05 09:13 40.85749 29.99219 26193 ft 455 kts 120°
2026-05-05 09:13 40.84044 30.02773 26564 ft 458 kts 120°
2026-05-05 09:13 40.82352 30.06294 26937 ft 460 kts 120°
2026-05-05 09:14 40.80625 30.09885 27284 ft 463 kts 120°
2026-05-05 09:14 40.78889 30.13489 27630 ft 466 kts 120°
2026-05-05 09:14 40.77139 30.17121 27942 ft 469 kts 120°
2026-05-05 09:14 40.75402 30.20719 28275 ft 471 kts 120°
2026-05-05 09:15 40.73628 30.24391 28627 ft 474 kts 120°
2026-05-05 09:15 40.71848 30.28070 28941 ft 476 kts 120°
2026-05-05 09:15 40.70061 30.31759 29273 ft 478 kts 120°
2026-05-05 09:15 40.68283 30.35426 29583 ft 481 kts 120°
2026-05-05 09:16 40.66474 30.39152 29886 ft 483 kts 120°
2026-05-05 09:16 40.64649 30.42906 30131 ft 486 kts 120°
2026-05-05 09:16 40.62815 30.46675 30339 ft 490 kts 120°
2026-05-05 09:16 40.60970 30.50463 30626 ft 490 kts 120°
2026-05-05 09:17 40.59153 30.54184 31068 ft 487 kts 120°
2026-05-05 09:17 40.57319 30.57937 31544 ft 483 kts 119°
2026-05-05 09:17 40.55516 30.61624 31941 ft 481 kts 119°
2026-05-05 09:17 40.53708 30.65322 32278 ft 481 kts 119°
2026-05-05 09:18 40.51895 30.69021 32629 ft 480 kts 119°
2026-05-05 09:18 40.50132 30.72758 33003 ft 476 kts 114°
2026-05-05 09:18 40.48783 30.76641 33349 ft 469 kts 104°
2026-05-05 09:18 40.47814 30.80721 33718 ft 465 kts 102°
2026-05-05 09:19 40.46901 30.84785 34064 ft 464 kts 102°
2026-05-05 09:19 40.45983 30.88867 34325 ft 464 kts 102°
2026-05-05 09:19 40.45053 30.92929 34532 ft 465 kts 103°
2026-05-05 09:19 40.44103 30.96998 34793 ft 464 kts 103°
2026-05-05 09:20 40.43165 31.00963 35247 ft 459 kts 103°
2026-05-05 09:20 40.42210 31.04976 35417 ft 460 kts 103°
2026-05-05 09:20 40.41245 31.09029 35474 ft 464 kts 103°
2026-05-05 09:20 40.40289 31.13044 35646 ft 465 kts 104°
2026-05-05 09:21 40.39319 31.17101 35904 ft 464 kts 104°
2026-05-05 09:21 40.38351 31.21148 36134 ft 464 kts 104°
2026-05-05 09:21 40.37496 31.25228 36325 ft 463 kts 99°
2026-05-05 09:21 40.36807 31.29317 36520 ft 462 kts 98°
2026-05-05 09:22 40.36169 31.33463 36718 ft 462 kts 97°
2026-05-05 09:22 40.35549 31.37560 36841 ft 463 kts 98°
2026-05-05 09:22 40.34911 31.41709 36984 ft 463 kts 98°
2026-05-05 09:23 40.33585 31.50018 37024 ft 465 kts 99°
2026-05-05 09:23 40.32232 31.58274 37024 ft 464 kts 99°
2026-05-05 09:24 40.30865 31.66545 37018 ft 463 kts 99°
2026-05-05 09:24 40.29497 31.74806 37016 ft 462 kts 99°
2026-05-05 09:25 40.28137 31.82993 37019 ft 461 kts 99°
2026-05-05 09:25 40.26771 31.91172 36997 ft 461 kts 99°
2026-05-05 09:26 40.25127 31.99331 36985 ft 463 kts 103°
2026-05-05 09:26 40.23313 32.07421 37007 ft 462 kts 103°
2026-05-05 09:27 40.21521 32.15459 36998 ft 463 kts 103°
2026-05-05 09:27 40.19733 32.23595 36983 ft 465 kts 103°
2026-05-05 09:28 40.17943 32.31761 36971 ft 466 kts 103°
2026-05-05 09:28 40.16156 32.39882 36978 ft 467 kts 103°
2026-05-05 09:29 40.14354 32.48037 36982 ft 468 kts 103°
2026-05-05 09:29 40.12533 32.56244 36971 ft 468 kts 103°
2026-05-05 09:30 40.10712 32.64420 36995 ft 468 kts 103°
2026-05-05 09:30 40.08893 32.72562 36978 ft 468 kts 104°
2026-05-05 09:31 40.06742 32.80609 36977 ft 471 kts 115°
2026-05-05 09:31 40.03036 32.87612 36993 ft 473 kts 128°
2026-05-05 09:32 39.98799 32.94196 36977 ft 473 kts 128°
2026-05-05 09:32 39.94601 33.00748 36974 ft 472 kts 128°
2026-05-05 09:33 39.90426 33.07344 36971 ft 470 kts 128°
2026-05-05 09:33 39.86272 33.13927 36971 ft 470 kts 128°
2026-05-05 09:34 39.82148 33.20449 36981 ft 469 kts 128°
2026-05-05 09:34 39.77985 33.27014 36982 ft 469 kts 128°
2026-05-05 09:35 39.74523 33.32463 36988 ft 469 kts 128°
2026-05-05 09:35 39.68262 33.42293 36985 ft 470 kts 128°
2026-05-05 09:36 39.64102 33.48808 36999 ft 471 kts 128°
2026-05-05 09:36 39.59903 33.55372 36990 ft 472 kts 128°
2026-05-05 09:37 39.55743 33.61927 36993 ft 473 kts 127°
2026-05-05 09:37 39.51652 33.68600 37002 ft 473 kts 127°
2026-05-05 09:38 39.47542 33.75282 36998 ft 474 kts 128°
2026-05-05 09:38 39.43404 33.81871 37003 ft 474 kts 129°
2026-05-05 09:39 39.39129 33.88403 37003 ft 474 kts 129°
2026-05-05 09:39 39.34903 33.94877 37000 ft 474 kts 129°
2026-05-05 09:40 39.30666 34.01409 37005 ft 473 kts 129°
2026-05-05 09:40 39.26473 34.07923 37001 ft 472 kts 129°
2026-05-05 09:41 39.22257 34.14462 36990 ft 472 kts 129°
2026-05-05 09:41 39.18070 34.20935 36997 ft 471 kts 129°
2026-05-05 09:42 39.13868 34.27420 36998 ft 470 kts 129°
2026-05-05 09:42 39.10279 34.34378 36996 ft 469 kts 123°
2026-05-05 09:43 39.06250 34.41030 36989 ft 469 kts 130°
2026-05-05 09:43 39.02011 34.47365 36988 ft 469 kts 130°
2026-05-05 09:44 38.97772 34.53754 36989 ft 469 kts 130°
2026-05-05 09:44 38.93566 34.60193 36988 ft 469 kts 130°
2026-05-05 09:45 38.89404 34.66592 36991 ft 469 kts 130°
2026-05-05 09:45 38.85210 34.73029 36970 ft 469 kts 130°
2026-05-05 09:46 38.81006 34.79464 36969 ft 469 kts 130°
2026-05-05 09:46 38.76830 34.85840 36962 ft 469 kts 130°
2026-05-05 09:47 38.72620 34.92257 36965 ft 469 kts 130°
2026-05-05 09:47 38.68428 34.98632 36960 ft 469 kts 130°
2026-05-05 09:48 38.64221 35.05018 36959 ft 468 kts 131°
2026-05-05 09:48 38.60010 35.11397 36955 ft 468 kts 131°
2026-05-05 09:49 38.55841 35.17705 36954 ft 467 kts 131°
2026-05-05 09:49 38.51632 35.24049 36959 ft 467 kts 131°
2026-05-05 09:50 38.47400 35.30270 36954 ft 466 kts 132°
2026-05-05 09:50 38.43121 35.36494 36941 ft 466 kts 132°
2026-05-05 09:51 38.40972 35.39622 36483 ft 472 kts 132°
2026-05-05 09:51 38.38813 35.42767 35987 ft 470 kts 132°
2026-05-05 09:51 38.36657 35.45909 35367 ft 470 kts 132°
2026-05-05 09:51 38.34502 35.49048 34802 ft 470 kts 132°
2026-05-05 09:52 38.32352 35.52178 34345 ft 466 kts 133°
2026-05-05 09:52 38.30219 35.55281 33875 ft 463 kts 133°
2026-05-05 09:52 38.28100 35.58359 33354 ft 459 kts 133°
2026-05-05 09:52 38.26022 35.61374 32893 ft 455 kts 133°
2026-05-05 09:53 38.23946 35.64384 32438 ft 450 kts 133°
2026-05-05 09:53 38.21887 35.67366 31992 ft 445 kts 133°
2026-05-05 09:53 38.19851 35.70313 31565 ft 441 kts 133°
2026-05-05 09:53 38.17830 35.73235 31137 ft 436 kts 133°
2026-05-05 09:54 38.15853 35.76090 30717 ft 432 kts 134°
2026-05-05 09:54 38.13874 35.78947 30317 ft 427 kts 134°
2026-05-05 09:54 38.11913 35.81764 29903 ft 422 kts 134°
2026-05-05 09:54 38.09975 35.84542 29422 ft 417 kts 134°
2026-05-05 09:55 38.08083 35.87250 28995 ft 412 kts 134°
2026-05-05 09:55 38.06191 35.89958 28554 ft 407 kts 134°
2026-05-05 09:55 38.04314 35.92643 28111 ft 402 kts 134°
2026-05-05 09:55 38.02470 35.95278 27676 ft 397 kts 134°
2026-05-05 09:56 38.00644 35.97886 27246 ft 394 kts 134°
2026-05-05 09:56 37.98853 36.00443 26841 ft 389 kts 133°
2026-05-05 09:56 37.97064 36.02994 26425 ft 385 kts 133°
2026-05-05 09:56 37.95291 36.05522 26014 ft 382 kts 133°
2026-05-05 09:57 37.93524 36.08038 25611 ft 378 kts 133°
2026-05-05 09:57 37.91776 36.10526 25204 ft 375 kts 133°
2026-05-05 09:57 37.90066 36.12958 24799 ft 373 kts 133°
2026-05-05 09:57 37.88347 36.15402 24409 ft 370 kts 132°
2026-05-05 09:58 37.86640 36.17827 24010 ft 367 kts 132°
2026-05-05 09:58 37.84941 36.20238 23623 ft 365 kts 132°
2026-05-05 09:58 37.83248 36.22638 23163 ft 362 kts 132°
2026-05-05 09:58 37.81607 36.24978 22766 ft 358 kts 133°
2026-05-05 09:59 37.79963 36.27326 22392 ft 353 kts 134°
2026-05-05 09:59 37.78341 36.29642 22009 ft 350 kts 134°
2026-05-05 09:59 37.76732 36.31937 21605 ft 347 kts 134°
2026-05-05 09:59 37.75134 36.34214 21235 ft 343 kts 134°
2026-05-05 10:00 37.73553 36.36465 20859 ft 341 kts 134°
2026-05-05 10:00 37.72002 36.38673 20495 ft 338 kts 134°
2026-05-05 10:00 37.70437 36.40898 20108 ft 336 kts 134°
2026-05-05 10:00 37.68884 36.43104 19747 ft 334 kts 134°
2026-05-05 10:01 37.67361 36.45266 19403 ft 332 kts 134°
2026-05-05 10:01 37.65826 36.47443 19048 ft 330 kts 134°
2026-05-05 10:01 37.64303 36.49602 18672 ft 328 kts 134°
2026-05-05 10:01 37.62784 36.51754 18307 ft 327 kts 134°
2026-05-05 10:02 37.61270 36.53897 17917 ft 325 kts 134°
2026-05-05 10:02 37.59785 36.56000 17532 ft 324 kts 134°
2026-05-05 10:02 37.58292 36.58113 17169 ft 321 kts 134°
2026-05-05 10:02 37.56812 36.60206 16810 ft 318 kts 134°
2026-05-05 10:03 37.55341 36.62284 16471 ft 316 kts 134°
2026-05-05 10:03 37.53877 36.64352 16131 ft 315 kts 134°
2026-05-05 10:03 37.52417 36.66412 15784 ft 315 kts 134°
2026-05-05 10:03 37.50957 36.68471 15407 ft 314 kts 134°
2026-05-05 10:04 37.49519 36.70502 15082 ft 312 kts 134°
2026-05-05 10:04 37.48084 36.72546 14740 ft 310 kts 133°
2026-05-05 10:04 37.46663 36.74577 14414 ft 308 kts 133°
2026-05-05 10:04 37.45247 36.76605 14064 ft 306 kts 133°
2026-05-05 10:05 37.43865 36.78583 13743 ft 304 kts 133°
2026-05-05 10:05 37.42523 36.80634 13366 ft 304 kts 124°
2026-05-05 10:05 37.41543 36.83010 13005 ft 306 kts 117°
2026-05-05 10:05 37.40669 36.85445 12638 ft 305 kts 116°
2026-05-05 10:06 37.39808 36.87893 12272 ft 305 kts 116°
2026-05-05 10:06 37.38964 36.90303 11916 ft 304 kts 116°
2026-05-05 10:06 37.38111 36.92733 11575 ft 303 kts 116°
2026-05-05 10:06 37.37256 36.95163 11228 ft 304 kts 115°
2026-05-05 10:07 37.36325 36.97552 10857 ft 303 kts 122°
2026-05-05 10:07 37.35184 36.99783 10498 ft 302 kts 125°
2026-05-05 10:07 37.34018 37.01969 10176 ft 300 kts 125°
2026-05-05 10:07 37.32861 37.04114 9835 ft 300 kts 126°
2026-05-05 10:08 37.31687 37.06274 9477 ft 299 kts 126°
2026-05-05 10:08 37.30518 37.08414 9217 ft 296 kts 126°
2026-05-05 10:08 37.29354 37.10538 8950 ft 293 kts 126°
2026-05-05 10:08 37.28201 37.12636 8672 ft 290 kts 126°
2026-05-05 10:09 37.27068 37.14692 8404 ft 287 kts 126°
2026-05-05 10:09 37.25944 37.16722 8138 ft 279 kts 126°
2026-05-05 10:09 37.24839 37.18713 7877 ft 270 kts 126°
2026-05-05 10:09 37.23571 37.20347 7696 ft 260 kts 149°
2026-05-05 10:10 37.21895 37.21156 7476 ft 260 kts 169°
2026-05-05 10:10 37.20098 37.21433 7237 ft 259 kts 174°
2026-05-05 10:10 37.18304 37.21659 7047 ft 256 kts 175°
2026-05-05 10:10 37.16581 37.21872 6959 ft 248 kts 174°
2026-05-05 10:11 37.14871 37.22089 6876 ft 245 kts 174°
2026-05-05 10:11 37.13166 37.22309 6816 ft 247 kts 174°
2026-05-05 10:11 37.11437 37.22537 6743 ft 250 kts 174°
2026-05-05 10:11 37.09730 37.22764 6669 ft 251 kts 174°
2026-05-05 10:12 37.07992 37.22997 6597 ft 251 kts 174°
2026-05-05 10:12 37.06249 37.23232 6478 ft 249 kts 174°
2026-05-05 10:12 37.04512 37.23466 6068 ft 247 kts 174°
2026-05-05 10:12 37.02843 37.23692 5917 ft 233 kts 174°
2026-05-05 10:13 37.01305 37.23975 5751 ft 217 kts 162°
2026-05-05 10:13 37.00125 37.24992 5575 ft 204 kts 133°
2026-05-05 10:13 36.99389 37.26473 5376 ft 199 kts 112°
2026-05-05 10:13 36.99030 37.28065 5192 ft 184 kts 108°
2026-05-05 10:14 36.98711 37.29573 5052 ft 176 kts 107°
2026-05-05 10:14 36.98406 37.31009 4939 ft 167 kts 108°
2026-05-05 10:14 36.98109 37.32409 4771 ft 165 kts 108°
2026-05-05 10:14 36.97831 37.33751 4613 ft 162 kts 109°
2026-05-05 10:15 36.97532 37.35119 4385 ft 164 kts 109°
2026-05-05 10:15 36.97240 37.36501 4108 ft 163 kts 108°
2026-05-05 10:15 36.96950 37.37854 3874 ft 160 kts 108°
2026-05-05 10:15 36.96675 37.39129 3663 ft 163 kts 108°
2026-05-05 10:16 36.96385 37.40470 3412 ft 163 kts 108°
2026-05-05 10:16 36.96074 37.41836 3183 ft 164 kts 107°
2026-05-05 10:16 36.95780 37.43221 2918 ft 165 kts 107°
2026-05-05 10:16 36.95476 37.44607 2634 ft 164 kts 104°
2026-05-05 10:17 36.95222 37.45956 2380 ft 155 kts 107°
2026-05-05 10:17 36.94950 37.47188 2280 ft 134 kts 105°
2026-05-05 10:17 36.94764 37.48053 2280 ft 71 kts 105°
2026-05-05 10:17 36.94689 37.48403 2279 ft 26 kts 105°
2026-05-05 10:18 36.94647 37.48591 2280 ft 24 kts 105°
2026-05-05 10:18 36.94583 37.48768 2278 ft 23 kts 122°
2026-05-05 10:18 36.94502 37.48891 2282 ft 14 kts 135°
2026-05-05 10:18 36.94440 37.48945 2285 ft 10 kts 183°
2026-05-05 10:19 36.94411 37.48880 2292 ft 10 kts 282°
2026-05-05 10:19 36.94429 37.48797 2283 ft 10 kts 285°
2026-05-05 10:19 36.94447 37.48715 2285 ft 9 kts 285°
2026-05-05 10:19 36.94462 37.48641 2291 ft 9 kts 284°
2026-05-05 10:20 36.94479 37.48564 2284 ft 9 kts 285°
2026-05-05 10:20 36.94495 37.48487 2285 ft 9 kts 284°
2026-05-05 10:20 36.94510 37.48415 2286 ft 10 kts 284°
2026-05-05 10:20 36.94522 37.48360 2285 ft 10 kts 285°
2026-05-05 10:21 36.94549 37.48239 2293 ft 12 kts 285°
2026-05-05 10:21 36.94563 37.48174 2284 ft 12 kts 285°
2026-05-05 10:21 36.94583 37.48077 2286 ft 11 kts 285°
2026-05-05 10:21 36.94605 37.47979 2297 ft 13 kts 286°
2026-05-05 10:22 36.94628 37.47875 2284 ft 12 kts 284°
2026-05-05 10:22 36.94618 37.47800 2286 ft 8 kts 212°
2026-05-05 10:22 36.94579 37.47818 2285 ft 5 kts 111°
2026-05-05 10:22 36.94553 37.47829 2285 ft 4 kts 191°
2026-05-05 10:23 36.94523 37.47821 2284 ft 4 kts 194°
2026-05-05 10:23 36.94503 37.47815 2287 ft 1 kts 194°
2026-05-05 10:23 36.94499 37.47813 2288 ft 0 kts 194°